Weather Roundup
Issued by NWS Chicago, IL

Home | Current Version | Previous Version | Text Only | Print | Product List | Glossary Off
Versions: 1 2 3 4 5 6 7 8 9 10 11 12 13 14 15 16 17 18 19 20 21 22 23 24 25 26 27 28 29 30 31 32 33 34 35 36 37 38 39 40 41 42 43 44 45 46 47 48 49 50

000
NZUS59 KLOT 201103
HRRLOT

CHICAGO AREA WEATHER ROUNDUP
NATIONAL WEATHER SERVICE CHICAGO/ROMEOVILLE IL
600 AM CDT FRI APR 20 2018

NOTE: "FAIR" INDICATES FEW OR NO CLOUDS BELOW 12,000 FEET WITH NO
SIGNIFICANT WEATHER AND/OR OBSTRUCTIONS TO VISIBILITY.

* THESE STATIONS ARE NOT UNDER NWS QUALITY CONTROL. THEY ALSO MAY NOT
  REPORT WEATHER SUCH AS PRECIPITATION OR FOG.

ILZ005-006-012>014-019>023-201200-
NORTHEAST ILLINOIS

CITY           SKY/WX    TMP DP  RH WIND       PRES   REMARKS
OHARE            N/A     36  23  59 NW6       30.48R
MIDWAY           N/A     35  24  64 CALM      30.49R
AURORA           N/A     25  22  88 NW6       30.48R WCI  18
LANSING*         N/A     27  26  98 CALM      30.49R
JOLIET*          N/A     26  25  97 CALM      30.49R
WAUKEGAN         N/A     32  23  69 CALM      30.47R
DUPAGE AIRPORT   N/A     27  22  81 CALM      30.48R
WHEELING         N/A     32  26  78 CALM      30.50R
KANKAKEE*        N/A     29  23  79 CALM      30.49S
MORRIS*          N/A     29  23  78 CALM      30.49R
LEWIS AIRPORT*   N/A     32  26  78 NW3       30.49R
$$

WIZ051-052-058>065-066-070>072-201200-
SOUTHEAST WISCONSIN

CITY           SKY/WX    TMP DP  RH WIND       PRES   REMARKS
MILWAUKEE        N/A     31  22  69 CALM      30.48R
KENOSHA*         N/A     32  21  64 CALM      30.47S
RACINE*          N/A     31  23  72 CALM      30.49R
BURLINGTON       N/A     27  23  84 CALM      30.48R
WAUKESHA       CLEAR     30  21  69 W3        30.48R
WEST BEND        N/A     27  27 100 CALM      30.47S
$$

INZ001>003-010>013-019-020-201200-
NORTHWEST INDIANA

CITY           SKY/WX    TMP DP  RH WIND       PRES   REMARKS
GARY*          CLEAR     28  27  93 CALM      30.49R
MICHIGAN CITY* NOT AVBL
RENSSELAER*    NOT AVBL
VALPARAISO       N/A     33  25  72 CALM      30.48R
$$

LMZ740>746-201200-
SOUTHERN LAKE MICHIGAN

STATION/POSITION TIME  SKY/WX   TEMP WIND        PRES    VSBY
                                AIR  DIR/SP/G
                 (UTC)          (F)  (DEG/KT/KT) (MB)    (MI)
HARRISON CRIB    1040            42  310/  7/  7   N/A
BURNHAM HARBOR   1100            40  270/  1/  5   N/A
CALUMET HARBOR   1030            38  260/  2/  5 1031.3R
BURNS HARBOR     1040            40   20/  2/  3 1032.5R
MICHIGAN CITY    1040            35  200/  2/  3   N/A
$$

ABBREVIATIONS USED IN REMARKS
   TC - TEMPERATURE IN CELSIUS
  WCI - WIND CHILL INDEX
   HX - HEAT INDEX
  VSB - VISIBILITY
$$



USA.gov is the U.S. government's official web portal to all federal, state and local government web resources and services.